Lid_Strength_Index
5 5 4 3 3 3 3 3 3 3 4 5 5 5 4 3 1 1 1 -1 3 6 5 3 4 6 6 6 10 6 8 7 7 11 11 12 13 12 13 12 14 15 15 14 13 17 19 7 7 11 8 5 5 5
5 5 5 4 3 3 3 3 3 3 4 4 5 5 5 4 2 1 2 -1 1 6 5 2 1 1 2 3 6 6 8 8 7 10 9 10 12 11 13 16 10 15 12 14 13 14 8 7 6 5 4 5 5 4
5 5 5 4 3 3 3 3 3 3 3 4 5 5 4 4 4 2 1 1 3 5 4 4 4 1 0 1 1 7 6 5 6 5 8 9 12 10 15 14 12 10 8 12 12 9 9 7 6 5 5 5 4 3
5 5 5 5 4 3 3 3 3 3 3 4 5 5 5 5 4 3 2 0 2 4 9 5 1 2 -0 0 1 2 4 3 4 5 7 8 11 7 11 10 11 10 9 11 11 9 8 7 6 5 5 4 4 3
5 5 5 5 5 4 3 3 3 3 3 4 5 4 4 5 5 4 2 1 0 3 8 6 2 1 1 1 2 2 4 5 6 8 8 9 7 7 8 8 10 8 9 11 12 7 8 8 6 5 5 4 4 4
5 5 5 5 5 5 3 3 3 3 3 3 4 5 4 4 5 4 4 0 -1 1 7 9 2 3 2 2 3 3 3 4 5 6 7 5 4 6 9 11 7 6 6 6 8 6 6 5 5 5 5 4 4 4
6 6 6 5 5 5 4 3 3 3 3 3 4 5 4 3 3 4 4 2 1 2 6 8 7 4 2 3 2 4 3 4 4 5 6 6 6 5 8 10 7 6 6 5 5 5 6 6 6 5 4 5 4 4
6 6 6 5 5 5 5 3 3 3 3 3 4 4 3 3 3 3 2 3 1 3 4 8 7 5 2 6 6 3 4 4 5 5 5 6 5 6 9 7 6 5 5 6 6 5 5 4 4 4 4 4 5 5
6 6 5 5 5 5 5 4 3 3 3 3 3 3 2 2 3 3 2 3 2 3 7 8 9 10 3 4 5 4 4 8 4 6 6 7 7 10 8 7 6 6 6 5 4 5 5 5 5 4 5 5 5 5
7 6 6 5 5 5 4 4 3 3 3 3 2 2 4 3 3 2 4 6 7 5 5 7 4 7 5 5 7 6 5 7 9 6 4 7 8 6 5 5 5 4 4 4 5 6 6 6 6 5 5 5 4 5
7 7 6 6 5 5 4 4 4 4 4 2 3 3 2 3 3 3 7 8 7 8 6 5 5 6 3 8 7 6 8 7 11 9 8 9 9 7 4 4 3 3 3 4 3 4 4 5 5 5 5 5 5 4
8 7 7 6 5 5 5 4 4 4 4 5 4 3 3 4 5 8 8 6 7 8 5 6 5 4 4 2 7 6 10 8 12 6 9 11 7 5 4 4 4 3 3 4 4 4 4 4 4 5 5 5 5 5
8 7 6 6 5 5 5 5 5 5 4 4 5 7 6 6 11 10 11 8 7 5 5 5 7 5 4 4 7 8 11 11 7 9 10 8 5 5 4 3 3 3 3 3 3 3 4 4 3 4 5 5 5 6
7 7 7 6 6 5 5 5 5 4 4 6 6 11 8 9 8 7 7 6 4 4 5 4 6 6 4 7 7 11 8 7 12 14 12 7 5 4 4 3 4 4 3 3 3 3 4 4 4 4 4 4 5 6
8 7 7 7 6 5 5 5 4 3 4 5 5 11 8 6 4 4 4 4 3 3 3 5 5 6 7 8 6 10 11 13 11 11 7 5 4 3 4 3 3 3 3 3 2 3 3 3 4 4 3 3 4 5
7 7 5 5 5 4 4 4 3 3 4 5 6 8 5 6 6 5 4 5 3 3 3 4 6 8 8 8 10 11 13 14 12 7 5 4 3 3 3 3 3 3 3 2 3 2 2 3 3 4 4 3 3 3
7 6 5 5 5 5 4 4 3 5 7 7 7 5 5 5 5 5 4 4 2 4 6 6 10 9 5 9 11 8 12 7 6 5 3 3 3 3 3 3 2 2 2 2 2 2 2 2 2 3 4 4 3 3
7 4 4 5 5 5 3 4 5 6 8 6 7 5 4 4 4 4 3 3 3 4 5 6 5 8 10 12 9 7 6 5 5 5 4 3 2 2 3 2 2 2 2 2 2 2 2 2 3 3 3 3 4 4
6 6 5 5 4 5 6 6 5 8 6 5 4 3 4 4 3 3 3 2 2 2 4 5 8 8 8 6 6 5 5 5 5 5 4 3 3 2 3 2 2 3 2 2 2 2 2 2 2 2 3 3 4 4
5 5 5 4 4 6 8 6 4 6 7 5 4 4 4 4 3 3 3 3 4 5 6 6 6 5 5 4 3 3 4 4 5 5 5 4 3 3 3 3 3 3 3 3 3 5 3 3 2 2 2 2 3 4
6 5 4 4 5 5 7 6 6 5 5 6 4 4 5 3 4 4 4 3 5 7 7 5 4 3 2 2 2 2 3 3 4 4 5 4 3 3 3 2 2 3 3 3 4 4 5 3 2 2 2 2 2 3
5 5 6 5 7 7 8 6 6 5 6 6 6 5 6 6 6 5 3 6 6 5 4 4 4 3 3 3 2 2 3 3 2 4 5 4 4 4 4 3 2 3 3 3 2 3 3 3 2 2 2 2 3 2
4 5 6 7 8 8 10 5 9 7 9 7 6 7 6 6 5 3 6 5 4 3 3 3 2 2 2 2 2 2 2 3 4 3 3 3 3 3 3 3 2 3 4 3 2 2 3 5 4 2 2 2 2 3
4 7 8 9 9 10 7 8 7 7 7 8 8 9 7 6 4 6 7 6 4 3 3 3 3 3 3 2 3 3 3 3 4 3 3 3 4 3 3 3 3 2 2 2 2 2 2 3 4 3 2 2 3 4
9 9 8 10 8 9 9 9 8 8 10 9 9 9 7 5 8 8 8 6 4 4 2 3 3 4 4 3 3 3 2 3 4 4 2 2 3 3 3 3 3 2 1 2 3 3 3 3 3 3 3 4 5 4
13 8 10 8 8 8 8 9 9 9 8 9 8 6 5 7 9 9 7 4 4 3 2 3 3 3 4 3 3 3 3 2 3 4 3 3 3 4 4 4 4 3 1 2 2 3 3 3 3 3 4 5 8 5
13 11 6 4 5 6 7 6 5 7 9 10 8 8 8 10 9 6 4 3 3 3 0 1 2 3 3 3 2 1 1 1 2 2 2 2 2 2 2 4 4 3 1 1 1 2 3 3 3 4 4 4 5 6
8 8 10 8 8 6 8 7 7 8 7 5 6 8 10 9 9 6 5 2 1 1 1 2 2 1 2 2 1 1 1 1 1 1 2 2 3 3 2 2 2 8 1 2 2 1 2 2 3 3 4 4 5 6
7 6 7 9 8 8 8 8 8 6 4 5 8 9 8 5 4 4 3 2 2 2 2 2 2 2 1 1 1 1 1 2 3 4 5 5 4 3 2 1 2 1 1 1 10 6 3 3 3 3 3 4 4 5
6 5 7 8 9 9 7 6 6 5 4 4 4 4 4 4 3 1 2 2 3 3 3 3 2 2 3 2 3 2 2 1 2 3 4 4 4 2 1 1 1 0 0 0 1 2 8 5 5 2 3 4 6 6
5 5 6 6 7 6 5 4 4 4 4 4 3 4 4 4 4 6 7 6 3 2 2 3 3 2 3 3 3 3 4 1 1 2 2 1 1 1 1 1 0 0 0 -0 -0 1 2 2 3 5 5 6 7 7
7 7 7 8 7 4 3 4 4 5 5 5 5 4 4 4 7 7 7 6 6 7 7 5 4 4 3 3 2 3 7 4 3 3 2 2 1 1 1 -0 -0 0 1 1 1 2 3 4 4 5 6 7 7 7
7 7 6 7 7 7 5 6 6 6 6 6 5 5 5 6 10 8 5 6 7 8 8 7 5 6 5 5 5 5 6 6 8 10 9 9 9 6 1 1 1 1 2 2 3 3 3 4 5 6 6 7 7 7